User: anonymous   Login
Location: Ponte Samoggia
(44.5667°N, 11.1333°E)
Time: 04:59:19
(UTC+00:00)
Language:

CZ-4C R/B - Orbit

View from above orbital plane
View from above orbital plane
View from above satellite
View from above satellite

Ground track
Ground track

The orbit data is extracted from the following two-line orbital elements,

1 36416U 10009D   22222.43094243  .00000053  00000-0  61828-4 0  9996
2 36416  63.4111 251.2114 0572008 356.4495   3.2559 13.69712225621698
Epoch (UTC): 10 August 2022 10:20:33
Eccentricity: 0.0572008
inclination: 63.4111°
perigee height: 578 km
apogee height: 1422 km
right ascension of ascending node: 251.2114°
argument of perigee: 356.4495°
revolutions per day: 13.69712225
mean anomaly at epoch: 3.2559°
orbit number at epoch: 62169

The dashed part of the orbit path shows where the satellite is in the earth's shadow,  

DLR